Theta_e
296 296 296 296 297 298 298 298 298 298 298 300 301 302 307 313 314 313 313 312 311 313 315 315 314 314 313 311 311 311 311 311 310 309 309 308 309 310 309 310 310 310 311 310 310 312 310 315 324 326 322 321 320 318 318 318 317 319 322 322 321 322 322 322 323 324 323 320 319 319 318 317 318 319 319 317 321 323 325 330 331 328 326 327 329 330 329
296 296 296 296 297 298 297 297 297 298 298 299 300 302 305 310 312 313 313 312 312 313 314 315 315 313 312 311 311 311 311 310 310 309 309 309 309 310 310 310 310 310 311 310 310 311 311 314 320 321 318 319 319 317 317 318 318 319 321 321 320 320 324 327 330 330 327 324 327 327 323 319 319 320 318 317 319 322 324 326 326 326 326 325 330 331 328
296 296 296 296 297 297 297 297 297 298 298 298 300 303 306 310 313 313 312 312 312 313 312 312 313 313 313 312 311 311 310 310 310 309 309 309 309 309 309 309 309 309 310 311 310 311 312 313 317 319 319 318 317 317 317 317 319 319 318 319 319 319 323 327 330 332 328 323 324 328 326 321 319 319 317 318 322 323 323 325 325 325 325 325 329 329 325
296 296 296 297 297 297 297 297 297 299 299 299 302 305 308 312 314 312 311 310 310 311 311 311 313 313 313 313 312 310 310 310 310 309 310 310 310 309 310 309 310 310 310 311 311 310 310 312 315 317 318 318 318 317 317 316 317 318 317 317 319 320 324 326 327 330 330 324 320 321 322 319 319 319 318 320 325 325 326 327 323 324 328 329 327 324 324
296 295 296 296 296 296 297 297 299 299 299 302 304 307 310 313 313 310 310 310 310 311 311 310 312 312 312 313 312 311 310 310 310 310 310 310 309 310 310 310 310 311 311 313 314 312 312 314 316 317 317 317 317 316 316 316 317 318 317 317 320 321 323 326 325 324 323 321 317 317 319 317 317 319 320 323 325 327 330 328 322 328 336 330 324 323 325
296 295 296 296 296 297 297 297 300 301 302 304 306 308 310 311 310 308 309 310 311 312 311 311 311 311 311 312 311 311 311 310 310 311 310 310 310 311 312 311 311 311 312 315 316 315 317 318 318 320 318 316 317 318 318 316 316 317 318 319 322 323 323 324 324 321 319 317 317 320 323 319 316 318 321 323 325 327 330 328 326 334 337 329 325 326 325
296 295 296 297 296 297 297 298 301 304 306 307 307 308 308 309 309 308 309 310 310 310 310 310 311 311 311 311 311 311 311 310 310 310 310 310 310 311 312 311 310 310 311 313 314 315 318 318 317 319 318 317 319 321 321 320 317 317 318 317 319 323 325 323 319 319 319 317 316 320 323 321 317 317 319 321 324 325 327 328 328 330 329 326 325 326 323
296 296 296 296 297 297 297 298 300 304 307 307 307 307 307 308 309 308 309 310 308 308 309 310 312 311 310 311 310 309 309 309 308 308 310 311 310 309 309 309 310 310 310 311 312 312 314 315 315 317 317 318 320 319 321 323 319 317 319 320 318 321 324 321 317 318 318 316 316 317 318 317 317 317 318 319 323 325 326 327 327 326 324 322 322 323 322
296 296 295 296 297 297 298 299 301 303 305 305 305 305 307 309 309 309 310 311 308 307 308 310 312 311 309 310 310 308 308 308 308 309 309 310 310 308 307 308 310 310 310 310 310 309 309 311 312 313 313 315 316 315 318 321 321 321 324 323 320 321 322 319 318 320 320 318 317 317 316 316 317 319 317 317 321 325 325 325 326 325 322 321 321 322 321
296 296 295 296 297 297 298 300 302 303 304 304 304 304 305 308 308 309 311 312 309 307 307 308 309 309 308 309 309 308 308 307 308 310 310 308 309 308 307 308 309 310 310 309 308 307 307 308 309 310 310 311 311 312 314 317 320 324 326 325 321 321 323 320 319 320 320 318 319 320 319 320 320 319 316 314 318 322 322 322 323 322 320 320 321 321 319
296 296 295 296 297 298 299 301 303 304 304 304 304 304 304 307 309 309 310 311 309 306 306 307 308 306 306 307 307 308 308 307 307 310 310 308 307 307 307 307 308 310 309 307 306 306 307 308 309 310 310 310 310 311 312 312 316 320 324 326 323 322 325 323 319 319 318 318 320 322 323 322 319 316 314 314 318 321 321 322 322 320 318 318 319 319 318
296 296 295 296 297 298 300 302 303 303 304 304 305 304 304 307 311 310 309 309 308 306 307 307 307 307 306 305 305 308 308 308 307 308 309 308 307 306 306 306 308 309 306 305 306 307 307 309 310 311 310 310 310 311 311 312 315 316 319 323 322 321 323 322 319 318 318 318 321 323 322 319 317 314 312 313 316 318 319 319 318 318 318 317 317 318 316
296 296 296 296 297 298 299 302 303 304 304 304 304 304 305 307 310 310 309 309 307 305 306 306 304 306 307 305 305 307 307 307 306 307 308 308 307 306 305 305 306 306 305 305 306 307 309 312 313 313 312 310 310 311 311 312 313 313 315 318 320 321 320 320 319 319 318 319 321 321 318 315 314 314 311 311 313 315 316 318 317 316 317 316 316 316 313
296 296 296 296 297 297 299 301 303 303 304 304 303 304 305 306 308 309 309 310 307 303 304 306 305 306 307 306 305 306 306 306 307 308 308 308 306 305 304 304 305 305 305 306 306 308 311 314 314 314 313 313 313 313 313 312 311 312 312 313 317 319 319 320 321 318 318 320 319 317 317 315 314 314 311 309 310 311 313 317 317 315 315 316 315 313 311
296 296 296 296 297 297 298 300 302 302 303 304 304 304 304 305 306 307 307 308 307 304 303 305 306 306 306 306 306 306 307 308 308 308 308 307 306 305 304 304 305 306 306 307 308 310 311 312 313 313 315 317 317 314 312 312 312 311 311 311 313 316 316 320 323 318 317 320 319 316 318 317 314 313 311 308 308 308 311 317 317 314 313 313 313 311 310
297 296 296 296 297 298 298 299 301 302 302 303 304 303 303 304 305 306 305 304 305 306 303 303 304 305 305 305 305 305 307 308 308 308 308 307 305 304 305 305 306 306 306 307 308 310 311 311 311 312 314 315 315 313 312 313 313 312 311 310 312 314 314 317 322 319 316 318 318 317 317 316 312 312 311 308 306 308 312 317 317 314 312 310 309 309 308
297 296 296 296 297 297 298 299 300 301 301 302 302 302 303 304 305 305 305 303 303 303 302 301 303 303 303 305 305 304 305 306 306 307 308 307 305 304 305 305 305 306 307 308 309 310 311 311 312 313 314 312 312 313 313 313 314 315 313 313 314 315 315 316 318 317 315 316 317 315 314 313 310 309 310 308 306 309 314 317 316 314 311 310 308 308 308
297 297 296 297 297 297 298 299 300 302 301 301 301 301 302 304 304 304 304 302 301 301 300 301 301 301 302 303 303 303 304 304 305 307 307 306 305 304 304 305 305 306 307 308 310 310 310 311 310 312 314 312 311 313 313 313 315 316 315 314 315 315 315 315 315 315 315 316 315 313 311 310 308 308 307 307 308 312 315 315 314 312 311 309 308 308 308
297 297 297 297 297 297 298 299 301 302 302 302 301 300 301 303 303 303 303 302 301 301 300 300 300 300 301 301 301 302 303 302 303 305 307 306 304 303 305 305 305 306 306 307 309 309 308 310 309 309 314 315 311 312 312 310 312 312 310 312 314 313 313 314 314 313 314 314 314 313 311 308 307 307 307 307 311 314 312 311 310 309 309 309 308 307 307
297 298 297 297 297 297 298 299 302 303 303 303 302 301 300 302 303 303 303 303 301 301 301 300 300 300 300 300 300 301 302 301 302 303 304 304 303 304 307 308 306 306 306 307 310 309 307 309 309 306 311 313 311 310 309 307 307 307 308 311 311 310 311 312 311 310 313 314 313 312 310 308 306 308 308 307 310 311 309 307 307 307 306 307 307 306 306
298 298 298 297 297 297 297 299 301 303 305 305 304 303 302 302 302 302 303 302 302 302 301 301 300 300 300 299 299 300 301 301 301 301 302 302 302 304 306 306 304 305 305 306 308 309 307 307 308 307 307 309 309 309 309 308 307 306 307 310 310 309 311 312 310 309 311 312 310 309 308 306 305 307 307 306 306 308 307 306 306 305 305 305 305 305 305
297 298 298 298 298 297 297 297 299 303 305 304 304 304 303 302 303 304 304 303 303 303 302 301 301 300 300 300 300 300 300 300 301 300 301 302 302 302 303 302 302 303 304 304 306 308 307 305 306 307 307 307 308 308 308 309 309 306 307 311 311 309 309 310 309 308 309 309 308 307 306 305 305 306 306 305 305 305 305 305 304 303 303 304 304 305 305
297 297 298 298 298 297 297 297 298 300 301 301 302 303 303 302 303 305 305 304 304 303 302 302 301 301 300 300 300 300 301 301 301 300 300 301 302 302 301 301 302 302 303 303 304 305 306 305 305 307 307 305 307 308 308 309 308 306 306 309 309 306 306 308 308 307 307 307 306 305 305 305 305 305 305 305 304 304 304 303 302 302 303 303 304 304 304
298 297 297 298 298 298 298 297 297 298 298 298 301 303 303 302 303 304 304 304 304 303 302 301 301 301 301 301 300 300 301 301 301 301 300 301 302 303 302 302 302 302 303 303 302 303 304 304 305 307 307 305 306 309 309 308 306 306 308 308 306 304 306 308 308 308 308 308 306 305 305 305 304 304 304 304 303 303 303 303 302 302 302 303 303 303 303
298 298 297 297 297 298 298 297 297 297 297 298 301 303 303 302 302 303 304 305 305 305 304 302 301 301 301 301 301 301 301 301 301 301 301 301 301 302 302 302 302 303 303 302 302 301 302 303 305 306 306 304 305 307 308 307 305 307 309 307 305 304 305 307 308 307 308 307 305 304 305 304 304 304 304 303 303 303 302 302 302 302 302 302 303 303 303
298 298 298 298 297 297 298 297 297 297 297 298 299 301 303 302 301 300 302 305 306 306 306 303 301 301 301 301 301 301 301 301 301 301 301 301 301 302 301 301 302 302 301 301 302 301 301 303 304 305 305 304 303 304 305 305 304 306 306 305 304 304 305 306 306 306 306 306 305 304 305 304 303 303 303 302 302 302 302 302 302 302 302 302 302 302 302
297 298 298 298 298 297 297 297 297 297 297 297 298 300 302 303 301 298 300 304 306 307 307 305 302 301 301 301 301 301 301 301 302 301 301 301 301 301 301 301 301 302 300 301 301 301 301 302 303 304 303 302 303 305 304 303 304 306 305 304 303 304 305 306 307 307 307 306 305 305 305 304 303 302 302 302 302 302 302 302 302 301 301 301 301 301 301
297 297 297 298 298 298 297 297 297 297 296 297 298 301 302 303 303 299 298 302 305 306 306 306 303 302 302 301 301 301 301 301 302 302 302 301 301 301 301 301 301 301 301 301 301 301 301 302 302 302 302 302 303 306 304 302 304 305 304 303 303 303 304 305 306 307 306 305 304 304 305 304 303 303 303 302 302 302 302 302 301 301 301 301 301 300 300
297 297 297 298 298 297 296 296 296 297 298 300 302 303 303 303 303 300 297 299 301 302 304 305 304 303 303 302 301 301 301 301 302 302 302 302 301 301 301 301 301 300 300 301 301 300 301 301 301 302 301 300 302 304 303 304 306 305 303 302 302 302 302 303 304 305 304 304 304 304 304 303 303 302 302 301 301 302 302 301 301 300 300 300 300 300 300
297 297 297 298 297 296 296 296 296 297 299 302 304 305 305 305 304 301 298 298 299 300 303 304 304 303 302 301 301 301 301 301 302 302 302 302 302 301 301 301 300 300 300 300 300 300 300 300 300 301 300 298 300 302 302 304 305 303 301 301 301 301 302 302 303 303 303 302 303 303 303 302 302 301 301 300 300 300 300 300 300 300 300 299 299 299 299
296 297 297 297 297 296 296 296 295 297 299 302 304 305 304 304 303 302 300 298 298 300 303 304 304 303 302 301 301 301 301 302 302 302 302 301 301 301 301 301 300 300 300 300 300 300 300 299 299 301 299 298 300 301 301 304 305 302 301 301 300 300 301 301 302 302 302 302 302 302 302 302 301 301 300 300 299 299 299 299 299 299 299 299 298 298 298
296 296 296 296 296 296 296 296 297 298 299 300 300 301 301 300 300 300 299 297 297 301 304 304 303 302 302 302 301 301 301 302 302 302 302 301 300 301 301 301 300 300 300 300 300 300 300 299 300 300 300 299 300 301 302 305 305 302 300 300 300 300 300 300 300 301 301 300 301 301 300 300 300 300 300 300 299 299 299 298 298 298 298 298 298 297 297
296 296 296 296 296 296 296 296 298 300 301 301 301 301 301 299 297 297 298 297 298 302 304 303 302 302 302 302 302 301 301 302 302 301 301 301 300 301 301 301 301 300 300 300 300 300 300 300 300 301 300 299 300 301 302 303 303 301 300 300 300 300 300 300 300 300 300 299 300 300 299 299 299 299 300 299 299 299 298 298 298 298 298 298 298 297 297
296 296 296 296 295 296 297 298 301 303 304 304 304 303 301 299 297 297 297 297 299 302 302 301 302 302 302 302 303 302 301 301 301 302 301 300 301 301 301 300 301 301 301 301 300 300 300 300 300 301 301 300 300 300 301 301 301 300 300 300 300 300 300 299 299 299 299 299 299 299 299 299 298 299 299 298 298 298 298 298 298 298 298 298 298 297 297
296 296 296 296 296 297 298 301 303 304 304 304 304 302 299 297 296 297 297 298 301 303 302 300 301 302 303 304 304 303 301 301 302 302 301 301 301 301 300 300 301 302 302 301 300 301 301 300 300 301 301 300 300 300 300 301 301 300 300 300 300 299 300 299 299 299 299 299 299 299 299 299 298 298 298 298 298 298 298 298 298 298 297 298 298 298 297
296 296 296 296 297 298 300 302 302 302 303 305 304 301 297 296 296 297 297 298 301 302 302 301 302 303 303 304 303 301 301 302 302 301 301 302 301 301 300 300 302 301 300 300 300 302 302 300 300 301 301 301 301 301 300 300 300 300 299 300 299 299 300 299 299 299 299 299 299 299 299 299 298 298 298 298 298 298 298 298 298 298 297 297 297 297 297
299 299 299 300 301 301 303 303 301 299 300 302 301 298 298 298 299 299 299 301 301 301 301 302 304 303 302 303 302 301 302 302 302 301 301 301 301 300 300 301 301 300 300 301 302 301 300 300 300 301 302 301 301 300 300 299 300 299 299 299 299 299 299 299 299 299 299 299 299 299 299 299 299 299 298 298 298 298 297 298 298 297 297 297 297 297 297
301 301 302 303 304 303 304 303 300 297 297 298 298 298 300 301 301 302 301 301 301 300 300 302 303 302 302 304 303 302 302 302 302 302 301 300 300 301 300 300 301 300 301 302 301 300 300 301 301 302 302 301 300 300 299 299 299 299 299 299 299 299 299 299 299 299 300 299 300 299 299 299 298 298 298 297 298 298 298 298 298 297 297 297 297 297 296
301 302 303 304 304 303 302 301 299 297 298 299 299 301 302 301 301 302 301 300 300 301 301 302 302 301 302 303 303 302 302 301 302 303 302 301 300 300 300 300 300 300 300 302 301 300 301 302 301 302 301 300 299 299 300 299 299 299 299 299 299 299 299 299 299 299 299 299 299 299 299 298 298 297 297 297 297 297 297 298 298 297 297 297 297 297 297
302 303 303 303 303 302 300 298 297 298 300 302 300 300 300 300 300 301 301 301 301 302 301 302 302 301 301 302 302 302 302 302 302 303 302 301 301 300 300 300 300 299 300 301 300 299 300 300 301 301 301 300 299 299 299 299 299 299 299 299 299 299 299 299 299 299 299 299 299 299 298 298 297 297 297 297 297 297 297 298 297 297 297 297 297 296 296
302 303 303 303 302 301 299 299 299 299 300 301 300 299 299 300 300 300 301 302 302 301 300 301 302 302 301 301 302 302 301 300 301 301 301 300 300 300 300 301 300 299 300 300 299 299 300 300 301 301 301 299 299 299 299 299 299 299 299 299 299 299 299 299 299 299 299 299 299 298 298 297 297 297 297 297 297 297 297 297 297 297 297 297 297 296 296
301 301 300 300 301 301 300 301 301 300 299 299 299 299 300 300 300 300 301 302 301 301 300 301 301 301 300 300 301 301 301 300 300 300 300 300 299 299 300 300 299 299 299 299 299 300 300 300 300 301 300 299 299 299 299 299 299 299 299 299 299 299 299 299 298 299 298 298 298 298 297 297 297 297 297 297 297 297 297 297 297 297 297 297 296 296 296
300 299 300 301 302 301 301 301 300 299 299 299 299 300 300 300 300 301 301 300 300 301 301 301 301 301 301 301 301 301 301 300 300 300 300 300 299 299 300 300 299 299 299 299 300 300 300 300 301 300 299 299 299 299 299 299 299 298 299 299 299 299 299 298 298 298 298 298 298 298 298 298 297 297 297 297 297 297 297 297 297 296 296 296 296 296 296
300 300 301 301 300 300 300 300 299 299 299 299 299 301 301 301 302 303 302 300 300 301 301 301 301 301 302 302 301 301 301 301 300 299 299 299 299 299 300 299 299 300 300 300 300 300 301 301 302 300 299 299 299 299 299 299 299 299 298 299 299 299 299 298 298 298 298 298 298 297 297 298 297 298 297 297 297 297 297 297 296 296 296 296 296 296 296
300 300 300 299 299 298 298 299 299 298 299 300 300 302 302 303 303 304 303 301 301 301 301 300 300 301 301 301 301 301 301 300 300 300 300 299 299 300 300 300 300 300 299 299 300 300 301 301 300 299 299 299 299 299 298 298 298 298 298 299 299 299 298 298 298 298 298 298 298 298 297 298 298 297 298 298 297 297 297 297 297 296 296 296 296 296 296
301 300 299 299 299 298 298 299 299 300 300 301 301 302 302 302 302 302 301 300 300 301 301 300 300 300 300 300 300 301 300 299 299 300 299 299 299 300 299 299 300 300 299 299 300 300 300 300 299 299 299 299 298 298 298 298 298 298 298 298 299 298 298 298 298 298 298 298 298 298 298 298 298 298 298 298 298 297 297 297 297 297 296 296 296 296 296
301 300 299 300 300 299 298 299 300 301 301 301 301 301 301 301 301 301 300 300 301 301 300 300 301 300 300 300 300 300 300 300 300 300 300 299 299 300 299 299 299 299 298 299 299 300 300 299 298 298 299 299 298 298 298 298 298 298 298 298 299 299 299 298 298 298 298 298 298 298 298 298 297 297 297 297 297 298 298 298 297 297 297 296 296 296 296
300 300 299 300 300 300 300 300 301 301 301 301 301 300 300 300 301 301 300 300 300 301 301 301 300 300 300 300 300 300 300 300 300 300 299 299 299 299 299 299 299 298 298 299 300 301 300 299 298 299 299 299 298 299 298 298 298 298 298 298 299 299 299 299 298 298 298 298 298 298 298 298 298 298 298 298 297 298 298 298 298 297 297 297 297 296 296
300 300 300 299 300 300 300 301 301 301 301 301 300 300 300 301 301 300 300 300 300 300 300 300 299 299 300 300 300 300 300 300 300 300 299 299 299 299 299 298 298 299 299 300 300 300 300 299 299 299 299 299 299 299 299 299 299 298 298 298 299 299 299 299 298 298 298 298 298 298 298 298 298 298 298 298 298 298 297 297 298 298 298 297 297 296 296
300 299 299 300 300 301 301 301 302 302 301 300 300 300 301 301 300 300 300 300 300 300 300 300 300 300 300 299 299 299 300 300 299 299 300 299 299 299 299 299 299 300 300 300 299 299 299 299 299 299 299 299 299 299 299 299 299 299 298 299 298 298 298 298 298 298 298 298 298 298 298 298 298 298 298 298 298 298 297 297 297 298 298 298 297 297 296
299 300 300 300 300 301 302 302 302 302 301 301 301 300 301 301 301 300 300 300 300 300 300 300 300 300 300 300 299 299 299 299 299 300 300 300 300 299 300 300 300 300 300 299 299 299 299 299 299 299 299 299 299 299 299 298 298 299 299 298 298 298 298 298 298 298 298 298 298 298 298 298 298 298 298 298 298 297 297 297 297 297 297 298 297 297 297
299 300 300 300 300 301 301 301 301 301 301 301 301 300 300 301 301 301 300 300 300 300 300 300 300 300 300 300 299 299 299 299 299 300 300 300 300 300 300 300 300 299 299 299 299 299 299 299 299 299 299 299 299 299 299 298 298 299 299 298 298 298 298 298 298 298 298 298 298 298 298 298 298 298 297 297 297 297 297 297 297 297 297 297 297 297 297
Wind_Speed
16 17 16 15 14 15 16 18 19 19 16 10 9 10 7 5 2 4 2 1 2 3 1 3 2 2 6 10 12 14 12 8 9 15 14 8 7 8 7 7 8 5 4 7 8 8 7 1 3 1 0 2 3 4 10 10 7 4 1 3 5 3 2 2 0 2 3 3 5 6 9 9 5 2 3 1 5 6 5 4 4 3 1 1 4 2 3
16 16 15 14 14 15 16 17 16 17 17 13 12 11 9 10 6 5 4 1 3 3 1 3 3 4 7 8 10 13 11 8 9 10 12 10 6 5 4 6 9 7 6 7 9 11 6 3 5 2 2 2 1 4 9 10 4 1 2 3 4 3 1 2 2 2 3 3 5 7 7 5 3 3 7 8 3 5 6 3 3 3 3 5 6 2 3
16 15 14 13 14 15 16 16 14 13 14 12 13 13 10 10 5 6 6 3 2 1 2 4 4 3 5 6 8 9 9 11 11 8 11 13 9 5 5 8 10 8 7 8 9 9 8 3 2 3 2 2 2 3 4 9 4 5 12 9 5 2 0 2 3 3 2 1 1 1 3 4 3 5 9 10 9 5 5 5 5 2 2 3 5 4 4
15 14 13 13 14 16 16 15 11 9 10 10 10 11 8 6 3 3 5 4 4 5 7 8 6 3 4 4 6 7 6 10 13 11 10 14 15 10 8 9 9 7 7 8 8 9 10 8 4 3 2 2 3 1 6 9 7 9 15 9 3 3 2 1 2 4 5 4 2 3 2 3 5 10 13 10 10 7 4 5 3 3 2 3 1 7 10
15 14 13 13 15 16 16 14 8 4 6 8 10 10 7 4 1 1 2 3 7 7 8 9 6 4 4 2 3 8 6 5 10 12 9 11 13 10 8 10 9 7 7 6 6 9 9 8 7 4 2 1 2 2 3 6 9 8 10 8 3 3 3 4 5 4 2 6 5 5 5 5 7 11 14 12 11 10 7 5 2 4 5 2 1 8 12
14 13 13 14 16 16 15 12 5 1 2 8 10 9 6 3 1 4 3 1 1 2 4 5 4 5 6 2 2 6 6 4 6 8 8 9 11 8 5 10 12 11 8 4 5 8 7 7 7 6 5 4 3 3 1 3 10 10 7 8 3 4 1 4 3 5 4 4 8 6 5 5 7 10 11 11 12 11 9 3 1 5 6 3 4 8 10
13 14 13 14 16 16 15 12 4 3 5 6 6 6 7 7 4 6 7 3 4 5 1 4 5 5 5 4 3 5 7 7 6 6 5 5 9 9 5 8 12 11 9 5 4 6 5 5 6 4 5 5 3 2 1 3 11 10 5 5 4 4 1 5 4 3 5 1 7 9 6 3 5 9 9 9 10 10 10 6 5 10 10 9 12 12 8
13 14 13 14 16 16 16 13 6 3 5 9 11 10 9 10 7 7 10 9 5 5 5 5 4 4 5 4 4 5 6 8 7 7 5 3 5 9 9 10 9 8 8 7 5 6 5 4 5 3 3 5 3 1 0 1 4 5 2 5 7 5 2 5 3 4 5 4 6 9 8 4 4 8 11 10 9 8 8 7 7 10 9 11 15 13 8
12 13 13 13 14 15 16 14 10 6 4 6 12 12 8 6 6 6 7 8 7 1 4 5 4 2 3 2 2 4 5 6 6 6 6 6 6 9 11 10 7 6 8 7 5 8 9 8 9 8 5 6 8 5 1 3 4 4 1 2 4 3 1 4 4 1 0 4 3 4 7 6 6 9 13 13 7 3 4 4 5 4 8 11 13 9 5
11 12 13 12 13 14 15 14 13 11 8 9 13 13 10 6 4 7 7 4 5 2 5 5 4 2 0 2 2 2 2 4 4 3 6 9 10 11 11 9 6 4 4 5 8 14 16 16 17 16 12 13 14 13 8 5 5 5 3 2 3 2 2 2 4 2 3 6 7 3 4 5 5 5 8 10 6 1 5 5 6 4 4 6 8 5 4
11 12 12 11 12 13 13 13 13 13 13 13 15 15 13 10 8 12 10 3 3 6 6 4 3 0 1 2 2 4 2 1 2 2 2 6 7 10 11 9 5 3 5 10 15 19 21 22 23 20 17 16 15 16 15 8 4 6 4 3 2 3 5 3 2 2 2 5 6 5 5 4 2 3 5 7 4 3 7 6 5 5 2 3 7 7 5
10 11 11 11 11 11 11 11 13 14 15 14 15 14 12 10 11 14 9 2 5 9 6 4 6 5 6 10 6 2 5 3 3 5 4 3 4 7 9 7 3 4 11 17 20 21 19 17 17 15 15 14 12 13 13 5 4 7 7 6 4 4 5 3 2 2 0 3 5 5 3 2 1 3 7 9 8 7 8 10 8 7 6 7 7 8 10
9 10 10 10 11 11 10 10 11 13 13 12 13 14 11 7 10 13 9 3 4 7 5 7 13 15 12 11 9 1 5 5 4 6 6 5 4 6 5 4 5 10 16 20 21 18 12 7 6 5 7 7 6 7 6 3 7 9 8 6 5 5 4 3 2 1 1 2 3 2 1 2 3 5 10 11 10 10 8 7 7 6 10 9 5 7 12
9 10 10 9 10 10 9 9 9 11 12 11 12 13 11 9 11 13 10 3 2 9 10 6 8 14 12 10 11 6 2 3 3 5 7 7 7 6 3 6 10 13 16 17 15 11 4 2 4 4 3 2 1 2 4 5 9 13 12 6 3 5 4 3 2 2 1 3 3 2 1 3 4 4 5 5 5 8 6 2 4 4 4 9 9 9 12
8 9 10 9 9 10 9 9 9 9 10 11 11 11 11 11 11 11 11 4 1 8 13 8 7 10 10 10 12 8 5 6 4 6 8 7 8 6 3 12 16 17 17 13 8 4 2 2 3 2 2 2 1 2 5 4 5 10 12 9 5 4 3 3 3 0 0 3 3 2 1 1 1 3 4 5 9 13 8 1 3 8 8 8 12 11 10
8 8 9 8 8 9 10 10 10 10 11 10 10 12 12 11 10 9 11 10 5 4 10 12 12 12 10 11 15 11 5 5 6 7 5 2 3 5 10 16 18 19 17 10 4 2 1 0 1 1 1 1 1 1 3 3 3 7 10 11 12 9 5 4 4 2 1 3 3 2 2 1 1 4 4 6 12 16 10 4 2 8 10 13 15 11 12
7 8 8 8 8 9 9 10 10 11 11 10 10 13 12 12 12 10 11 14 12 8 11 13 14 15 11 8 11 12 9 8 7 5 4 6 11 15 19 19 16 20 21 10 3 2 2 1 1 3 1 1 1 1 2 2 2 5 7 8 10 9 6 5 4 3 2 2 2 2 1 1 2 5 6 9 12 10 5 4 1 6 5 14 17 14 15
6 7 7 7 7 7 8 10 10 10 11 9 9 11 12 12 14 13 12 13 11 9 12 14 14 14 11 8 9 11 12 11 8 5 6 6 9 15 20 15 11 17 20 10 2 2 3 1 2 4 1 2 1 3 1 1 1 1 2 4 5 4 4 3 4 3 2 2 3 2 1 1 4 8 12 13 9 3 3 1 3 3 3 13 18 17 16
5 6 6 7 7 7 7 8 9 10 11 10 9 11 12 11 12 15 16 14 11 10 11 13 15 14 12 13 14 14 14 14 11 7 4 3 12 22 19 11 11 13 13 8 3 3 4 3 3 3 2 1 1 3 1 1 1 1 3 5 4 2 2 3 3 2 1 2 3 2 1 3 7 10 11 11 4 2 2 4 7 9 13 18 21 21 21
3 4 5 5 6 6 6 8 9 10 11 12 11 12 12 10 11 15 16 13 12 12 12 12 14 14 13 14 16 15 15 16 14 10 3 5 17 22 11 7 12 13 8 7 5 3 4 4 4 3 2 1 1 1 2 4 5 4 4 4 3 1 1 2 2 3 2 3 3 2 1 7 12 8 7 9 5 2 7 14 17 20 23 24 24 25 26
2 3 4 4 5 5 5 6 7 8 10 11 11 13 12 8 10 15 15 12 11 9 8 9 12 13 13 13 14 13 13 14 12 11 9 11 16 12 2 3 10 8 4 5 4 3 4 4 3 4 3 2 2 2 1 3 4 5 4 5 3 3 1 2 1 2 2 2 2 2 2 6 15 12 6 7 9 9 15 19 18 19 22 23 23 23 25
3 2 1 2 3 4 4 4 5 6 7 8 8 9 8 6 8 10 10 10 9 7 6 7 10 12 12 12 12 11 12 13 12 12 14 14 14 13 9 8 12 8 6 7 3 2 4 3 2 3 4 3 3 4 4 2 3 5 5 4 3 3 5 7 3 2 4 4 4 7 9 12 18 18 15 17 21 21 21 22 22 22 22 22 23 22 21
4 3 2 1 1 2 3 3 4 4 4 4 5 8 8 6 5 5 5 5 5 5 5 6 7 8 11 13 12 9 10 13 13 15 16 13 10 12 12 12 11 8 9 9 5 3 3 3 2 1 3 3 3 3 5 5 3 3 4 3 3 6 11 11 6 4 6 9 11 12 14 16 20 21 20 21 23 23 23 24 24 23 22 22 23 23 22
5 5 4 3 2 1 1 1 2 3 3 4 6 8 9 9 7 5 6 7 5 4 5 6 6 7 8 10 10 9 10 12 11 13 15 13 10 8 8 10 9 7 8 11 9 7 5 4 3 3 3 3 4 3 3 4 2 2 4 3 3 6 10 8 4 3 3 5 8 10 11 14 18 20 20 21 22 21 21 21 20 19 19 19 20 21 21
5 6 5 5 5 3 2 1 1 2 2 4 5 6 9 11 8 5 5 6 5 3 3 4 7 8 7 7 8 9 10 9 9 10 12 14 13 9 7 10 10 8 10 13 12 11 8 3 3 4 3 4 7 4 2 3 3 4 5 2 2 6 9 5 4 4 4 5 8 11 12 14 16 16 17 18 19 18 17 18 17 17 17 16 15 15 16
5 6 7 6 6 5 4 3 1 1 2 3 4 6 10 11 10 8 6 6 4 3 3 3 5 7 8 8 8 9 10 9 9 9 10 11 12 10 11 13 11 8 11 13 11 10 9 5 3 3 2 5 7 3 1 3 4 6 5 4 6 10 9 4 4 5 5 6 9 11 10 10 14 17 14 12 13 14 14 15 15 14 15 14 13 11 9
5 7 7 7 6 6 5 4 3 2 2 3 3 6 10 10 11 10 9 7 5 4 3 2 4 7 9 10 8 8 11 11 9 9 9 10 11 10 10 14 14 12 13 13 9 8 9 7 5 3 2 4 6 3 2 4 5 6 3 6 10 10 6 3 5 5 3 3 6 7 5 6 11 14 11 9 10 11 12 13 12 12 11 10 9 8 7
5 6 6 6 5 5 5 5 4 3 4 5 5 8 9 7 8 9 8 6 4 3 2 5 1 6 7 8 7 8 10 12 11 10 9 10 12 11 10 11 13 15 15 13 8 6 6 5 4 4 3 4 4 5 6 4 6 5 3 6 10 9 5 4 5 5 4 3 6 10 10 9 11 12 11 9 10 11 13 14 12 10 9 8 6 5 5
4 5 5 4 2 4 5 6 5 5 6 6 5 6 6 2 5 9 7 4 3 4 5 5 2 4 5 5 5 5 5 7 9 9 7 7 9 11 11 11 10 12 14 11 8 5 5 5 4 4 4 4 2 3 5 4 4 3 4 8 11 11 10 10 10 11 9 8 11 15 15 12 11 11 11 10 9 11 15 15 10 7 8 7 3 2 4
3 3 2 0 3 5 6 6 7 8 7 5 4 4 3 1 3 7 8 6 4 5 7 6 1 2 5 6 6 5 4 5 8 9 10 9 8 8 11 11 9 10 11 9 8 7 5 4 4 5 6 7 4 0 2 3 3 3 8 13 13 11 12 13 14 14 12 11 14 15 14 12 10 9 9 8 8 9 10 9 7 6 7 7 4 3 4
3 3 3 4 5 6 8 8 9 9 7 3 3 4 3 1 3 5 8 7 4 4 6 5 3 2 4 5 6 7 8 7 7 7 10 11 8 7 8 9 10 12 12 10 8 7 4 3 3 4 8 11 7 2 1 3 3 3 10 15 14 13 14 13 13 13 13 13 14 13 13 13 11 10 10 8 6 7 8 6 4 3 3 4 3 2 2
5 6 6 6 7 7 9 9 9 7 3 2 4 6 5 5 5 6 6 5 1 3 6 5 3 1 3 3 3 6 8 8 6 4 7 11 9 8 7 6 8 10 10 8 7 5 4 5 4 5 8 11 6 2 3 4 2 4 11 15 13 12 14 13 11 11 11 10 9 11 12 11 9 10 11 7 6 6 6 6 4 2 2 1 1 2 2
6 7 7 8 8 9 9 9 8 6 5 5 6 7 8 8 6 5 4 1 2 1 3 3 2 0 1 4 4 4 7 8 7 6 7 9 10 9 8 6 5 6 7 6 4 3 3 5 4 4 6 8 4 2 2 2 4 8 15 16 13 12 11 9 9 9 10 9 9 11 13 11 9 9 7 5 5 5 4 2 0 2 1 2 1 2 3
7 7 8 9 10 11 11 10 9 8 8 6 5 6 9 8 5 3 1 1 2 1 1 2 2 1 1 4 4 3 7 8 7 6 6 7 9 10 10 6 2 2 5 6 4 2 2 5 5 2 2 3 3 2 1 2 7 13 14 13 11 10 8 5 5 7 9 9 9 11 10 8 6 5 3 3 4 2 2 2 3 3 2 0 1 2 2
9 9 10 11 12 12 11 9 8 8 7 4 2 5 7 5 4 2 2 2 1 1 1 2 2 1 1 2 2 4 6 6 6 6 6 6 6 8 10 7 1 2 3 5 3 1 2 4 6 3 0 1 1 0 0 4 11 15 12 9 10 11 8 6 5 6 8 8 6 5 5 3 1 1 3 4 4 4 4 4 4 3 2 2 2 1 2
12 13 13 13 12 10 8 7 7 7 5 1 2 3 4 4 5 4 3 2 4 3 2 4 3 2 1 2 2 3 6 5 4 5 6 6 4 5 8 6 3 2 5 4 2 4 4 4 4 3 1 1 1 3 6 10 13 14 14 12 8 6 4 4 6 8 8 7 5 3 3 1 2 5 4 1 1 3 4 5 4 4 3 1 3 2 2
14 14 13 12 10 8 5 4 3 5 4 1 0 1 4 6 6 6 4 3 3 2 2 2 3 5 5 3 2 4 6 5 5 5 5 5 5 5 5 4 1 4 6 2 2 3 2 2 3 1 2 1 4 10 14 15 13 11 10 9 8 7 5 3 5 7 8 7 5 3 1 1 3 5 5 3 2 3 4 6 6 5 6 5 3 2 1
11 10 9 7 6 5 3 2 4 6 3 2 2 2 3 2 2 2 2 2 1 2 1 1 3 10 11 6 4 5 5 5 6 6 4 4 5 4 4 3 1 3 3 2 2 5 4 0 2 0 1 5 12 15 15 13 11 8 7 5 6 8 7 3 1 5 8 9 8 4 2 2 2 4 5 4 5 5 4 7 7 6 6 7 6 4 4
7 5 6 6 5 4 2 3 4 6 5 4 3 2 1 0 1 1 2 2 1 1 3 3 4 9 10 5 3 6 6 5 4 3 3 4 4 3 3 3 2 2 1 1 3 6 4 1 1 1 1 3 9 13 12 11 11 9 6 4 4 6 7 5 1 3 5 6 5 4 4 3 2 4 4 5 7 7 3 7 7 5 4 5 6 5 4
2 3 3 4 4 5 5 6 6 3 2 3 4 3 2 2 1 1 2 1 1 2 4 3 2 5 5 3 2 5 7 5 3 1 2 3 3 2 2 1 2 3 1 0 3 4 2 1 2 2 0 1 7 12 11 11 11 9 7 6 5 4 4 4 1 2 2 1 2 4 3 2 2 2 4 5 7 6 4 5 6 5 5 6 6 5 5
2 2 4 6 6 4 6 8 6 3 2 2 2 1 1 2 2 1 1 0 0 2 3 2 2 3 4 5 5 5 6 7 5 3 3 2 3 3 2 1 1 2 1 0 3 3 0 0 2 2 2 6 10 11 10 9 9 9 7 6 5 3 4 4 3 3 3 1 3 4 3 2 2 2 4 5 5 5 5 5 5 5 6 8 7 6 6
3 5 7 8 7 5 3 3 3 2 2 2 1 1 0 0 1 1 1 1 1 2 2 3 3 3 4 6 6 5 5 6 5 3 2 1 2 1 1 0 1 1 0 2 4 2 1 2 2 0 4 9 12 12 11 10 9 9 7 5 3 1 1 4 5 1 2 2 2 3 3 2 1 2 4 4 5 5 4 5 6 7 7 7 7 6 7
7 8 7 5 4 3 1 0 1 1 1 2 1 1 1 1 1 0 1 2 2 2 2 1 1 1 2 3 3 3 3 5 4 1 0 1 1 1 1 1 1 0 1 3 3 0 1 1 2 2 6 9 10 9 8 7 5 6 6 7 7 4 2 2 3 2 2 4 4 3 1 0 1 2 4 5 6 5 4 4 5 6 6 5 5 6 8
10 9 6 3 2 2 1 0 1 1 1 1 1 1 1 1 1 1 2 2 2 2 2 2 2 1 2 3 3 1 2 2 2 2 2 2 1 1 0 0 0 0 1 2 1 1 1 1 1 6 9 10 8 5 5 4 3 3 5 7 8 6 3 5 5 2 2 4 6 5 4 4 5 5 5 5 4 4 4 4 4 5 6 7 6 7 9
9 7 4 2 1 1 0 0 0 0 1 1 2 2 1 2 3 3 3 2 2 3 3 3 6 5 2 3 2 1 0 1 0 1 1 2 1 1 0 1 1 1 1 1 1 1 1 1 3 6 8 9 8 7 6 5 3 2 4 4 4 4 3 4 8 8 6 4 5 5 6 6 7 6 6 6 6 6 7 7 6 5 6 8 8 8 8
4 3 2 1 1 1 1 1 0 2 2 2 2 3 5 6 7 6 4 4 6 7 6 3 6 5 2 1 0 1 0 1 1 0 2 2 0 0 1 2 2 2 1 1 1 1 1 1 4 6 6 6 6 5 3 3 2 2 3 3 3 4 4 3 5 7 8 8 8 9 11 12 10 9 9 8 7 6 7 9 9 8 7 8 9 9 10
2 1 1 1 1 1 2 2 3 2 2 7 10 11 12 12 12 10 6 6 9 9 7 5 5 5 3 2 1 1 1 2 1 0 2 2 0 0 1 1 1 0 0 1 1 1 0 3 7 9 7 5 3 3 3 3 3 4 4 5 6 6 4 4 4 5 6 7 8 9 10 13 13 13 13 13 11 9 7 8 10 10 9 9 9 9 8
3 1 1 0 1 2 2 6 8 3 7 12 12 11 10 9 11 10 7 7 9 8 5 4 4 4 3 1 1 1 0 2 1 0 1 2 1 1 2 1 1 1 1 1 1 0 2 5 7 9 8 6 5 5 5 4 5 5 6 7 8 8 7 6 7 8 8 9 9 8 9 10 11 11 12 15 15 13 10 8 9 11 11 12 12 10 8
2 2 1 1 3 3 2 3 4 3 9 10 8 6 5 6 10 12 8 5 6 6 4 3 3 2 2 0 0 1 0 2 1 0 1 2 1 1 1 0 2 2 0 0 2 4 5 6 7 8 8 8 8 7 6 6 8 8 9 10 10 9 8 8 9 10 11 12 11 9 8 9 9 10 10 11 12 11 9 7 9 11 12 12 12 12 10
1 2 2 2 4 5 6 4 2 3 7 8 4 3 5 9 12 12 8 4 4 3 2 2 1 1 1 1 1 0 0 1 1 0 0 0 0 1 1 1 2 1 1 1 4 7 8 8 8 8 8 7 8 8 8 9 11 11 11 11 11 10 10 10 10 11 11 11 9 9 9 9 10 11 10 9 9 9 8 7 9 11 11 10 11 11 10
2 2 4 5 6 6 4 3 3 3 5 6 3 4 7 11 11 8 4 3 3 1 1 1 2 1 1 1 0 0 1 1 1 0 0 0 0 1 1 2 0 2 4 6 7 8 6 5 7 9 9 8 9 11 11 11 12 12 11 11 10 10 10 10 10 11 11 10 10 11 12 12 12 12 12 11 11 11 10 9 9 10 11 10 11 11 11
2 3 5 6 7 7 4 0 2 3 4 5 4 4 7 10 10 7 4 2 1 1 2 1 2 1 0 0 0 1 1 0 0 1 1 1 1 1 0 1 2 4 7 10 10 8 5 5 8 10 9 8 11 13 13 13 14 14 14 12 9 8 9 9 10 11 11 10 11 11 10 10 11 10 9 10 11 13 12 9 8 9 10 11 11 10 11
Wind_Direction
343 345 347 349 350 348 345 344 339 337 341 345 339 345 344 307 273 147 138 10 131 153 327 305 253 253 288 280 283 292 294 298 326 329 319 323 356 354 343 327 329 358 358 336 326 301 297 27 105 129 212 227 234 360 11 358 338 345 355 313 326 333 1 16 206 275 302 304 324 358 15 3 341 324 343 281 185 152 143 193 185 116 119 135 77 88 229
346 349 351 352 351 349 346 344 342 337 337 340 342 348 340 313 293 173 167 105 148 173 344 326 300 313 315 314 318 314 316 333 341 333 326 331 344 332 324 338 341 343 348 344 319 300 306 99 111 112 227 260 359 45 5 342 326 32 354 335 345 337 3 46 47 22 335 332 360 353 353 14 360 324 353 351 341 119 118 116 107 116 188 155 124 155 221
351 353 354 355 351 350 349 345 345 336 329 333 336 339 338 322 299 169 165 164 172 177 15 332 302 325 338 333 326 323 332 338 337 341 336 334 335 323 322 337 335 332 341 332 311 313 326 327 126 118 185 296 357 113 21 352 355 344 335 344 18 7 217 99 105 139 171 194 138 282 309 332 332 343 7 11 9 43 114 104 77 103 220 123 128 164 159
355 356 356 357 353 354 353 348 347 333 320 326 331 331 334 324 315 143 141 108 58 36 21 359 337 338 355 337 326 345 359 337 340 1 358 347 352 342 329 342 339 332 339 331 318 323 330 338 24 79 98 327 307 27 21 353 331 334 338 346 52 46 341 3 112 157 167 162 145 131 88 360 357 10 12 16 15 22 85 102 94 159 136 45 103 155 140
358 360 359 359 358 358 357 352 353 332 308 324 336 334 320 288 297 95 138 55 28 24 16 6 357 346 350 346 334 353 4 342 355 10 356 344 355 350 347 3 356 342 348 344 333 335 342 14 34 26 25 2 294 1 15 324 320 337 344 345 44 74 331 318 5 4 173 139 98 80 69 26 25 35 26 23 24 23 45 76 119 134 103 30 253 143 133
1 3 3 3 2 3 3 360 5 84 307 318 325 333 330 308 71 70 64 46 31 21 352 351 18 18 356 347 9 3 5 11 11 1 338 338 353 348 351 8 3 358 3 5 351 353 7 29 17 0 6 354 337 17 83 6 10 5 333 331 30 108 256 288 358 350 323 96 87 81 75 17 22 49 45 35 32 24 20 18 146 117 113 143 147 116 117
3 6 7 8 7 8 11 10 19 85 46 15 2 5 8 9 28 37 22 359 206 179 99 25 44 38 1 344 5 8 9 15 6 350 354 357 350 347 357 13 8 359 358 14 19 7 14 8 347 343 350 326 307 36 51 28 33 25 330 323 31 82 293 262 192 203 267 165 106 94 86 34 21 46 46 46 49 30 4 359 65 94 108 122 113 98 94
6 8 11 12 11 14 19 21 22 39 53 58 53 40 22 13 7 356 349 332 274 191 123 82 66 40 16 5 4 6 16 14 353 344 12 30 354 0 7 8 8 356 353 15 28 360 350 336 310 297 329 316 277 135 141 232 62 58 358 344 21 40 303 277 238 188 221 210 140 121 121 133 81 47 26 25 43 35 6 3 50 81 99 107 104 100 101
7 10 15 17 18 21 26 32 37 31 38 61 53 43 27 17 12 360 348 321 296 274 101 93 97 67 33 35 13 8 11 7 346 334 2 26 19 4 354 350 357 352 353 11 4 333 323 305 293 289 286 287 291 297 198 172 143 119 116 12 37 45 346 334 356 69 241 339 347 142 142 130 85 45 14 359 3 42 38 6 7 74 116 111 103 103 115
8 13 17 21 25 27 30 38 44 46 57 65 55 44 27 26 34 15 4 305 288 4 76 66 50 44 243 181 130 76 3 355 15 349 346 5 6 353 344 338 343 343 346 355 328 311 305 298 296 295 281 272 283 288 274 231 165 140 130 123 114 110 111 39 15 36 18 350 343 4 103 90 49 23 351 326 304 119 83 42 12 30 104 110 111 135 149
9 16 20 26 33 34 37 45 47 48 53 50 47 38 19 15 11 359 353 304 327 30 66 64 31 297 297 359 65 124 170 300 73 125 312 341 346 338 333 331 338 327 310 326 320 308 303 298 291 286 278 270 271 280 285 279 173 148 135 121 128 122 118 97 45 59 355 339 354 23 62 73 25 329 313 309 310 91 94 84 49 22 18 91 118 131 117
13 19 24 31 39 40 46 54 51 51 52 47 46 38 15 10 17 8 359 330 11 27 42 30 12 358 6 7 1 151 175 197 141 158 213 283 311 314 322 331 336 299 309 321 321 312 307 299 282 268 266 264 255 260 276 284 126 126 115 111 115 104 106 104 99 128 199 354 27 42 59 90 84 338 348 357 13 46 80 98 89 76 85 86 92 103 90
17 23 28 36 44 46 53 59 54 52 52 53 54 44 21 19 37 26 14 2 19 28 26 18 11 358 351 357 358 23 180 197 177 174 202 224 265 293 315 324 296 299 313 318 317 314 310 304 296 276 261 258 241 245 271 20 63 60 65 89 120 111 103 106 90 104 137 72 57 84 109 41 34 4 360 10 17 14 31 75 87 100 122 121 105 104 107
20 26 32 41 47 49 56 64 61 58 57 57 58 50 34 36 44 30 15 357 46 35 27 21 6 351 342 355 10 17 337 272 231 222 228 219 230 260 324 344 318 315 320 314 309 313 319 344 346 334 316 320 337 324 349 27 43 43 39 34 110 125 121 115 64 5 98 107 77 87 85 7 6 350 343 359 357 336 336 47 53 36 106 133 130 122 121
21 29 37 44 50 51 57 66 69 70 70 65 59 53 39 34 38 31 17 3 135 43 30 16 342 336 341 7 18 10 342 341 332 288 262 224 213 225 5 3 340 327 320 309 301 319 338 16 13 351 4 31 41 347 358 7 24 35 33 27 47 87 104 121 127 304 88 114 102 99 114 50 333 286 302 338 328 311 306 48 48 353 5 79 110 114 113
23 33 41 46 53 55 57 67 73 72 72 71 65 56 41 30 38 47 43 47 74 47 13 5 5 5 6 17 16 7 346 345 350 329 307 336 16 360 4 358 344 338 337 320 283 331 349 305 38 44 57 74 155 289 345 348 348 3 20 30 33 30 27 65 105 109 69 90 99 100 118 119 306 295 316 352 330 315 321 49 65 317 355 65 91 97 98
22 34 43 49 57 60 61 69 73 68 64 66 63 53 40 34 45 58 64 68 78 64 22 18 27 28 23 17 8 5 360 353 354 345 321 358 15 3 351 346 345 356 4 355 276 333 15 218 52 73 80 345 102 128 336 356 359 338 354 24 28 20 14 25 50 71 72 75 79 72 87 109 306 302 311 324 323 322 348 79 163 288 5 78 89 87 87
26 36 44 50 58 64 69 73 73 71 68 66 65 56 45 46 59 70 74 76 78 59 34 35 42 37 28 23 14 11 11 4 357 341 323 349 6 342 334 344 1 1 4 5 316 2 17 327 41 81 101 315 99 141 239 319 182 282 351 49 46 22 10 29 47 54 70 97 95 75 62 354 300 298 309 316 319 356 44 131 201 241 113 105 101 94 85
27 39 43 51 60 64 71 77 77 78 73 67 73 69 51 48 66 73 70 73 80 69 46 46 53 47 39 36 30 25 26 23 16 6 348 345 341 333 337 15 27 360 358 8 353 1 14 351 9 75 100 340 47 152 143 37 77 119 72 77 71 16 354 26 31 4 17 94 92 95 109 342 319 311 333 357 15 145 76 92 105 90 97 109 106 101 94
17 41 45 51 62 63 75 87 86 81 70 61 65 67 57 52 67 66 59 66 85 80 59 53 58 55 49 46 39 32 30 28 23 19 10 314 333 338 350 36 9 351 2 15 357 356 17 355 344 23 72 43 313 197 101 54 40 39 59 77 70 7 39 60 21 343 17 60 62 93 186 346 356 356 5 20 27 159 99 93 93 86 92 102 102 101 103
344 29 42 50 62 68 81 92 91 85 73 65 66 68 60 58 72 71 66 73 87 87 74 67 64 60 57 51 46 45 42 36 28 15 356 345 353 4 50 15 355 353 5 7 354 341 352 345 336 2 26 22 359 9 44 59 44 24 42 84 59 351 30 96 329 324 52 69 51 88 122 30 36 55 74 51 61 95 98 92 86 79 85 94 95 98 106
297 324 9 38 57 69 80 86 97 98 83 74 74 70 62 70 79 73 69 74 81 91 108 93 67 59 59 50 44 49 44 38 37 23 4 2 24 47 55 19 6 7 7 15 20 316 336 351 347 7 22 13 358 360 6 64 84 24 24 70 48 18 88 100 77 30 69 98 98 82 80 69 63 70 76 70 74 87 93 89 81 76 82 89 90 94 104
289 287 286 311 16 64 80 83 100 110 93 72 63 56 54 63 68 56 62 85 87 83 95 92 72 64 59 46 40 43 32 27 32 28 18 17 33 46 43 27 13 5 10 19 8 300 302 314 310 13 50 15 352 359 16 45 77 34 35 65 58 72 94 97 89 75 72 78 85 81 75 71 71 73 74 72 75 82 87 86 82 79 83 88 91 96 103
293 286 277 266 264 278 80 92 105 107 97 79 68 58 47 34 16 28 68 80 75 66 75 78 70 63 51 39 40 42 32 29 34 29 24 28 37 39 27 14 5 360 8 9 354 329 310 297 328 32 58 6 2 33 54 45 28 20 54 58 33 55 72 82 99 117 102 82 84 87 88 84 80 78 77 75 75 77 80 83 84 82 82 84 91 101 105
292 290 284 269 256 248 234 199 133 114 117 100 79 59 46 30 3 352 28 29 13 27 72 79 71 66 56 44 45 45 36 35 40 35 28 31 38 36 8 355 355 353 355 357 350 343 340 333 9 40 52 17 14 29 62 36 38 66 64 36 337 39 50 67 104 94 95 113 111 112 113 104 94 89 85 83 81 78 77 81 84 84 81 78 85 99 108
290 286 284 276 258 239 232 224 191 168 149 111 81 59 49 30 1 347 2 2 355 14 38 86 102 86 62 50 51 49 42 37 36 38 36 32 34 33 17 10 16 16 4 358 353 358 13 32 42 48 49 4 1 10 13 3 38 71 59 24 42 51 50 65 102 88 85 105 115 120 120 107 100 99 95 92 94 92 89 87 85 87 89 86 86 92 96
294 287 284 280 262 238 224 212 200 188 132 107 94 74 56 28 4 9 21 17 24 41 20 22 100 95 66 53 55 47 39 39 42 45 43 33 30 35 30 22 24 21 8 4 11 32 44 42 26 32 38 350 341 342 348 16 58 76 42 18 42 55 61 68 73 86 106 121 131 134 120 97 105 109 108 106 106 106 107 104 97 95 98 97 97 95 87
300 295 290 283 264 231 208 197 196 173 121 116 107 88 75 43 10 16 19 13 38 66 312 306 32 101 79 58 52 41 35 40 44 43 44 40 36 36 31 23 22 16 6 4 20 54 66 50 15 8 18 12 359 340 333 8 70 73 37 34 46 57 78 86 92 117 123 119 137 139 129 119 124 131 134 129 125 131 131 124 117 114 114 112 115 125 127
316 306 296 288 243 194 183 177 168 146 128 125 118 104 105 84 358 10 14 2 11 20 350 335 13 100 88 63 47 25 20 38 41 33 28 32 38 37 30 24 21 11 2 2 15 46 74 77 67 55 33 25 22 329 338 24 72 71 72 76 72 69 69 79 107 122 114 106 120 126 126 125 128 132 126 107 104 126 131 124 117 121 128 127 127 165 169
341 336 328 139 152 159 161 157 151 146 143 136 116 109 130 212 337 12 19 4 341 5 20 15 16 118 93 70 39 7 6 44 49 35 19 17 32 39 30 27 30 25 21 25 34 44 54 52 62 75 52 35 41 349 349 49 80 75 69 72 74 75 74 85 107 114 106 109 118 123 130 136 137 133 118 89 78 99 111 115 120 127 134 133 110 73 105
47 64 89 110 130 141 145 146 148 150 157 154 84 81 85 343 336 359 3 352 341 18 20 346 276 186 106 74 38 22 24 29 23 13 16 24 34 34 25 33 46 41 36 35 35 39 43 18 26 64 47 33 31 18 17 56 70 71 71 70 68 69 71 82 105 113 109 115 123 127 131 135 139 134 119 105 105 101 89 96 121 130 149 149 130 38 32
87 93 103 116 128 135 141 148 149 143 129 34 53 66 49 1 345 348 346 337 343 47 14 336 282 181 113 112 72 36 24 18 10 12 26 28 24 15 20 49 59 40 29 24 18 20 24 19 33 65 47 30 22 15 55 69 98 112 95 84 72 67 68 68 78 97 105 110 117 117 110 105 111 117 110 110 136 136 109 94 83 16 313 193 227 278 235
100 101 108 114 119 124 128 132 130 111 69 50 63 53 22 4 360 0 351 309 191 101 7 335 285 297 138 156 136 51 13 12 26 47 46 34 22 14 16 30 41 33 30 28 14 8 32 35 48 82 60 41 37 43 50 93 137 120 108 97 80 77 81 66 53 71 89 88 81 86 89 86 91 108 114 116 129 138 147 147 136 317 305 157 216 238 172
103 106 115 116 113 118 121 116 105 86 65 57 48 17 4 3 10 25 58 183 189 195 300 281 261 295 75 137 127 28 3 12 27 38 41 34 26 14 1 345 327 31 26 7 340 307 69 44 32 49 79 56 54 43 7 86 97 99 108 117 114 111 114 104 75 82 97 97 82 74 77 81 90 114 157 167 143 145 229 219 220 268 309 68 226 218 156
107 110 117 118 117 121 118 102 77 61 60 68 12 354 5 16 25 57 151 158 77 58 326 297 277 280 43 107 92 2 4 21 28 24 22 24 22 7 355 351 29 87 358 336 338 42 75 25 3 355 156 51 33 78 57 66 73 71 71 92 120 129 135 143 141 122 111 112 106 88 80 73 27 271 225 201 193 211 217 184 182 229 279 332 322 266 195
113 113 115 119 122 121 109 87 59 38 33 5 302 346 40 76 83 105 143 110 67 65 341 316 310 319 27 118 116 15 11 17 16 16 21 22 12 351 353 5 37 354 325 322 37 60 58 35 14 9 338 334 10 113 90 69 65 60 48 46 62 77 78 107 132 132 122 117 117 116 118 124 316 317 314 285 191 212 208 191 191 205 210 268 316 301 194
115 113 114 115 110 100 94 89 45 16 9 352 289 99 108 102 93 102 108 68 56 48 348 318 323 350 18 78 84 8 7 10 19 36 39 19 357 341 351 9 7 331 337 11 74 22 10 72 70 19 269 289 96 101 90 75 64 54 45 37 28 21 27 75 132 140 142 142 137 130 169 243 293 320 328 326 305 284 241 212 201 192 191 214 265 280 189
121 117 111 96 71 59 85 97 34 27 50 130 143 122 118 90 66 102 103 73 30 329 357 56 3 11 31 63 62 21 12 5 16 37 39 9 3 2 2 11 356 335 354 46 17 344 329 222 128 111 334 63 78 85 85 78 66 52 44 40 29 26 28 30 147 152 144 140 138 146 203 255 296 333 346 344 328 308 239 199 192 189 196 212 234 258 279
121 111 97 88 62 29 44 98 61 52 81 98 52 24 27 304 286 194 132 115 141 14 40 54 20 22 38 66 70 44 34 8 11 45 37 16 26 27 2 1 6 7 21 16 350 355 347 282 122 86 10 50 67 69 65 62 62 58 54 47 25 20 22 16 7 155 129 118 136 176 208 240 307 346 353 337 325 316 252 196 188 186 195 211 222 234 249
53 19 52 93 79 24 38 90 107 101 93 72 37 12 333 316 341 121 132 146 158 80 64 54 32 38 41 32 37 50 37 14 8 39 8 17 36 16 348 352 8 12 33 314 339 357 357 317 15 38 13 62 69 66 59 55 54 50 48 45 26 1 360 5 352 168 134 121 204 202 204 226 267 335 348 323 305 293 253 198 183 188 209 223 227 231 236
51 53 92 115 116 81 70 92 98 69 19 42 38 2 319 319 330 27 119 71 23 95 84 44 28 57 43 26 41 58 40 19 16 8 350 18 39 11 332 284 355 20 89 82 331 337 355 13 6 27 93 97 86 78 73 67 55 44 47 55 48 32 21 24 52 127 139 190 226 213 206 212 242 300 323 317 303 285 265 237 213 212 220 222 225 241 255
110 103 107 110 109 105 99 101 91 43 29 49 36 333 314 137 334 5 86 89 36 80 80 44 39 52 37 30 46 63 39 19 16 9 359 35 38 4 326 15 23 41 75 331 329 330 67 35 343 346 94 89 84 79 78 76 58 41 38 32 13 359 31 17 18 59 184 223 232 191 172 141 41 312 287 288 297 298 277 233 215 223 230 221 216 234 257
125 113 107 102 103 107 89 313 138 114 32 47 48 342 317 230 229 242 127 127 101 86 91 72 62 77 49 41 56 69 43 28 18 354 42 75 29 350 34 44 34 161 276 328 335 356 112 333 256 175 115 97 88 75 68 65 44 28 24 8 349 322 259 294 353 358 248 253 266 264 239 57 355 299 290 289 282 271 254 227 222 230 229 217 218 238 252
123 110 98 92 113 119 94 351 149 129 11 42 159 205 230 197 178 114 101 104 90 95 105 60 30 40 77 62 54 60 77 64 30 350 25 47 21 354 98 124 305 305 338 331 320 204 234 271 149 127 122 120 116 96 75 72 55 24 7 358 356 351 300 250 245 253 279 277 273 270 272 277 275 273 286 300 291 259 244 245 247 237 221 217 230 249 255
120 112 102 70 44 65 58 301 242 202 215 210 217 234 204 128 99 82 83 81 82 112 119 55 21 23 63 83 57 351 206 101 229 215 116 81 27 315 346 326 324 2 14 342 327 322 308 338 61 83 95 102 102 102 108 110 95 24 335 330 347 2 342 253 233 233 249 276 279 262 258 271 277 267 263 272 276 270 264 260 257 253 241 231 234 249 261
110 130 137 94 359 271 215 154 183 238 219 182 125 73 75 89 91 84 68 51 64 86 101 66 11 5 23 75 71 239 185 35 355 174 119 104 151 206 31 3 348 10 29 353 331 327 307 11 43 54 67 79 83 85 82 62 36 359 330 316 309 318 329 295 246 242 247 254 259 255 252 255 256 253 257 262 254 246 258 263 260 257 249 236 240 255 257
79 159 160 84 340 224 176 197 241 251 71 77 79 76 78 89 96 91 67 46 57 69 73 57 24 3 354 3 344 240 143 96 35 37 100 104 200 106 67 39 351 346 53 276 278 278 57 48 37 34 38 47 38 4 338 332 319 306 302 295 285 284 288 285 281 279 267 258 261 265 261 257 252 249 255 259 251 239 245 259 261 257 244 233 242 258 249
58 94 131 75 216 194 205 235 239 208 83 78 82 84 85 95 107 105 86 60 58 56 43 37 33 1 324 285 260 279 116 117 133 69 87 95 77 25 42 20 292 267 227 224 253 331 71 58 32 16 11 9 354 332 314 303 301 303 302 294 285 280 280 279 278 275 266 263 272 284 282 272 262 254 255 260 259 250 238 239 253 256 244 235 241 249 245
359 307 300 271 266 276 282 243 229 132 96 94 100 108 109 109 111 113 111 83 65 58 31 22 36 9 334 11 206 297 20 110 122 42 51 80 118 131 94 283 275 280 304 71 350 354 16 36 27 7 354 344 333 319 304 295 293 289 287 290 294 295 294 292 287 281 275 273 276 284 288 288 284 273 263 261 258 247 232 237 256 256 245 240 244 246 246
257 272 270 250 280 321 8 35 33 81 100 106 109 113 116 114 113 116 119 101 73 59 342 336 57 46 342 359 18 314 13 50 35 15 98 127 185 150 162 226 260 284 46 46 348 341 352 9 12 0 347 334 326 325 323 321 318 308 296 293 297 299 297 294 292 291 289 287 285 284 286 288 285 275 265 262 260 246 232 241 258 254 245 243 243 240 242
169 262 266 248 262 295 345 34 15 25 86 102 81 53 88 110 122 127 121 92 78 58 297 161 128 127 320 336 78 99 9 2 2 17 191 217 185 167 205 228 257 31 13 349 334 332 341 352 345 336 328 318 313 313 312 312 313 311 303 299 303 306 301 296 295 296 293 289 290 291 290 289 285 273 262 263 266 255 239 239 251 251 247 248 244 237 236
193 245 265 259 262 272 277 16 23 18 66 107 113 84 91 109 121 118 89 72 66 324 357 89 147 185 273 116 96 354 331 239 231 329 284 241 142 118 247 302 24 20 351 337 337 347 6 360 338 329 321 310 305 305 301 297 298 299 297 295 298 301 295 290 296 303 299 289 287 291 295 299 298 285 264 256 257 249 238 240 255 252 247 251 252 242 234